Regional Weather Roundup
Issued by NWS

Home | Current Version | Previous Version | Text Only | Print | Product List | Glossary Off
Versions: 1 2 3 4 5 6 7 8 9 10 11 12 13 14 15 16 17 18 19 20 21 22 23 24 25 26 27 28 29 30 31 32 33 34 35 36 37 38 39 40 41 42 43 44 45 46 47 48 49 50

000
ASUS45 KBOU 221307
RWRCO

WEATHER ROUNDUP FOR COLORADO
NATIONAL WEATHER SERVICE DENVER/BOULDER CO
700 AM MDT FRI MAY 22 2015

NOTE: "FAIR" INDICATES FEW OR NO CLOUDS BELOW 12000 FEET WITH NO
SIGNIFICANT WEATHER AND/OR OBSTRUCTIONS TO VISIBILITY.

COZ001>005-013-030-031-221400-
...NORTHWEST COLORADO...

CITY           SKY/WX    TMP DP  RH WIND       PRES   REMARKS
CRAIG          LGT RAIN  46  43  89 CALM      30.01R
HAYDEN         CLOUDY    43  39  87 CALM      30.01R
MEEKER         RAIN      45  40  82 S9        30.04R
MOUNT WERNER   NOT AVBL
STEAMBOAT SPGS CLOUDY    42  39  92 CALM      30.02R
WALDEN         CLOUDY    37  36  93 CALM      30.09R
$$

COZ006>008-011-221400-
...WEST CENTRAL VALLEYS...

CITY           SKY/WX    TMP DP  RH WIND       PRES   REMARKS
GRAND JUNCTION CLOUDY    49  46  90 SE8       29.98R
MONTROSE       CLOUDY    46  41  82 SE6       30.04R
EAGLE          LGT RAIN  41  41 100 CALM      30.10R
RIFLE          CLOUDY    47  43  86 E7        30.03S
DELTA          CLOUDY    50  45  83 NE8       30.02R
NUCLA          CLOUDY    43  39  87 CALM      30.05R
$$

COZ017>023-064>068-221400-
...SOUTHWEST COLORADO...

CITY           SKY/WX    TMP DP  RH WIND       PRES   REMARKS
DURANGO        MOSUNNY   42  40  92 NE3       30.11R
CORTEZ         SUNNY     50  38  63 CALM      30.04R
PAGOSA SPRINGS MOSUNNY   37  37 100 CALM      30.14R
TELLURIDE      MOSUNNY   38  30  72 SE6       30.14S
WOLF CREEK PAS NOT AVBL
$$

COZ009-010-012-014-032>034-037-058>063-221400-
...CENTRAL COLORADO...

CITY           SKY/WX    TMP DP  RH WIND       PRES   REMARKS
ASPEN          CLOUDY    40  36  86 SE6       30.08R
BUENA VISTA    CLOUDY    38  37  93 CALM      30.07S
COPPER MTN     LGT SNOW  34  30  86 SW13G21   30.18R WCI  25
BERTHOUD PASS  SNOW      27  19  74 NW10      30.18R VSB<1/4 WCI  17
COTTONWOOD PAS CLOUDY    37  32  81 CALM      30.10R
GUNNISON       PTSUNNY   39  34  81 CALM      30.11S
KREMMLING      DRIZZLE   41  34  75 W12       30.06R
LEADVILLE      LGT SNOW  32  32 100 NE6       30.10S FOG     WCI  26
SALIDA         CLOUDY    41  40  93 CALM      30.13S
SUNLIGHT       CLOUDY    32  32 100 CALM      30.18R
WILKERSON PASS SNOW      30  30 100 W10G20    30.14S VSB 1/4 WCI  21
$$

COZ069>075-221400-
...SAN LUIS VALLEY/SANGRE DE CRISTO MOUNTAINS...

CITY           SKY/WX    TMP DP  RH WIND       PRES   REMARKS
ALAMOSA        MOSUNNY   40  34  79 VRB5      30.09R
LA VETA PASS   FOG      N/A N/A N/A MISG      30.11R VSB<1/4
SAGUACHE       PTSUNNY   41  37  87 SE5       30.10S
$$

COZ035-036-038>040-221400-
...NORTHERN COLORADO FRONT RANGE...

CITY           SKY/WX    TMP DP  RH WIND       PRES   REMARKS
DENVER INTL AP LGT RAIN  46  44  93 E10       29.99F
DMNS CITY PARK   N/A     47  45  95 NE3       29.99S
AURORA         LGT RAIN  46  46 100 SE2       30.00S
FRONT RANGE AP CLOUDY    48  46  93 SE12      30.01S
ERIE MUNI ARPT RAIN      47  46  96 E5        30.00S
BOULDER MUN AP RAIN      46  46 100 NE3       30.00R
CENTENNIAL     LGT RAIN  46  43  89 S7        29.99S
BROOMFIELD     NOT AVBL
FORT COLLINS   CLOUDY    46  45  93 E14       30.02S
LONGMONT       RAIN      49  47  93 E7        30.02S
$$

COZ041-046-047-076>085-087-088-221400-
...PIKES PEAK/PALMER DIVIDE AND SOUTHERN FOOTHILLS...

CITY           SKY/WX    TMP DP  RH WIND       PRES   REMARKS
COLO. SPRINGS  CLOUDY    44  43  96 SE7       30.03S
A. F. ACADEMY  LGT RAIN  42  42 100 S5        30.03R
ELLICOTT       NOT AVBL
FALCON         LGT RAIN  41  41 100 SE7       30.04F
FORT CARSON    LGT RAIN  45  45 100 E7        30.00F
LIMON          LGT RAIN  44  43  96 SE13      30.03S
MONUMENT HILL  NOT AVBL
TRINIDAD       SUNNY     47  39  74 N6        30.00S
$$

COZ042>045-048>051-090-091-221400-
...NORTHEAST COLORADO...

CITY           SKY/WX    TMP DP  RH WIND       PRES   REMARKS
GREELEY ARPT   CLOUDY    46  45  93 E12       30.02S
AKRON          RAIN      45  45 100 SE15      30.06S FOG
BURLINGTON     CLOUDY    46  44  93 SE24G32   30.06S FOG
WRAY           RAIN     N/A N/A N/A SE8       30.10S
STERLING       RAIN      46  45  93 SE7       30.07S
HOLYOKE        NOT AVBL
FORT MORGAN    RAIN      46  44  93 E12       30.05S
$$

COZ086-089-092>099-221400-
...SOUTHEAST COLORADO...

CITY           SKY/WX    TMP DP  RH WIND       PRES   REMARKS
PUEBLO         CLOUDY    47  46  97 E8        29.99R FOG
LA JUNTA       CLOUDY    49  44  83 SE8       29.98S
LAMAR          CLOUDY    50  47  89 S15       30.00F
SPRINGFIELD      N/A     47  45  93 S20G28    30.05S
$$



USA.gov is the U.S. government's official web portal to all federal, state and local government web resources and services.